Regional Weather Roundup
Issued by NWS

Home | Current Version | Previous Version | Graphics & Text | Print | Product List | Glossary On
Versions: 1 2 3 4 5 6 7 8 9 10 11 12 13 14 15 16 17 18 19 20 21 22 23 24 25 26 27 28 29 30 31 32 33 34 35 36 37 38 39 40 41 42 43 44 45 46 47 48 49 50
748
ASUS45 KBOU 241007
RWRCO

WEATHER ROUNDUP FOR COLORADO
NATIONAL WEATHER SERVICE DENVER/BOULDER CO
400 AM MDT WED MAY 24 2017

NOTE: "FAIR" INDICATES FEW OR NO CLOUDS BELOW 12000 FEET WITH NO
SIGNIFICANT WEATHER AND/OR OBSTRUCTIONS TO VISIBILITY.

COZ001>005-013-030-031-241100-
...NORTHWEST COLORADO...

CITY           SKY/WX    TMP DP  RH WIND       PRES   REMARKS
CRAIG          FAIR      34  30  85 CALM      30.05F
HAYDEN         FAIR      37  28  70 E7        30.06F
MEEKER         FAIR      37  32  82 NE5       30.08F
RABBIT EARS PA FAIR      32  30  93 W12G20    30.19F WCI  23
STEAMBOAT SPGS FAIR      35  31  86 CALM      30.08F
WALDEN           N/A     34  28  80 SE7       30.10F WCI  28
$$

COZ006>008-011-241100-
...WEST CENTRAL VALLEYS...

CITY           SKY/WX    TMP DP  RH WIND       PRES   REMARKS
GRAND JUNCTION FAIR      50  32  50 SE12      30.01F
MONTROSE       FAIR      45  32  60 SE7       30.09F
EAGLE          FAIR      35  29  78 E5        30.14F WCI  31
RIFLE          FAIR      40  31  70 NE3       30.07F
DELTA          FAIR      50  31  48 NE8       30.06F
NUCLA          FAIR      45  32  61 CALM      30.11F
$$

COZ017>023-064>068-241100-
...SOUTHWEST COLORADO...

CITY           SKY/WX    TMP DP  RH WIND       PRES   REMARKS
DURANGO        FAIR      41  24  51 N5        30.10S
CORTEZ         FAIR      41  34  76 E6        30.09F
PAGOSA SPRINGS FAIR      38  22  52 CALM      30.16S
TELLURIDE      FAIR      41  30  63 SE5       30.24F
WOLF CREEK PAS FAIR      32  27  80 SW6       30.37S WCI  26
$$

COZ009-010-012-014-032>034-037-058>063-241100-
...CENTRAL COLORADO...

CITY           SKY/WX    TMP DP  RH WIND       PRES   REMARKS
ASPEN          FAIR      35  27  72 SW7       30.15F WCI  29
BUENA VISTA    FAIR      35  27  71 CALM      30.10F
COPPER MTN     CLOUDY    36  27  69 MISG      30.29F
BERTHOUD PASS  FAIR      28  18  64 NW35G45   30.23F WCI  12
COTTONWOOD PAS FAIR      46  25  42 W10G24    30.16F
GUNNISON       FAIR      35  25  66 N3        30.17F
KREMMLING      FAIR      36  32  87 CALM      30.14F
LEADVILLE      FAIR      32  22  66 VRB6      30.18F WCI  26
MONARCH PASS   FAIR      30  19  64 W33G44    30.36F WCI  14
SALIDA         FAIR      39  25  56 CALM      30.17F
SUNLIGHT       FAIR      34  25  69 W8        30.29F WCI  27
WILKERSON PASS FAIR      34  23  64 NW18G31   30.22F WCI  23
$$

COZ069>075-241100-
...SAN LUIS VALLEY/SANGRE DE CRISTO MOUNTAINS...

CITY           SKY/WX    TMP DP  RH WIND       PRES   REMARKS
ALAMOSA        FAIR      34  28  79 SW6       30.11F WCI  29
DEL NORTE      FAIR      39  18  42 NW6       30.13F
LA VETA PASS   FAIR      34  19  55 SW22      30.28F WCI  22
SAGUACHE       FAIR      41  21  45 N8        30.13F
$$

COZ035-036-038>040-241100-
...NORTHERN COLORADO FRONT RANGE...

CITY           SKY/WX    TMP DP  RH WIND       PRES   REMARKS
DENVER INTL AP FAIR      38  33  82 S10       29.93F
DMNS CITY PARK   N/A     42  34  73 MISG      29.92F
AURORA         PTCLDY    41  33  73 S10       29.94F
FRONT RANGE AP FAIR      39  36  87 S9        29.94F
ERIE MUNI ARPT FAIR      39  37  91 CALM      29.93F
BOULDER MUN AP FAIR      41  36  81 CALM      29.92F
CENTENNIAL     FAIR      40  34  79 S7        29.95F
BROOMFIELD     FAIR      43  34  70 CALM      29.94F
FORT COLLINS   FAIR      44  35  70 CALM      29.93F
LONGMONT       FAIR      43  36  75 W5        29.94F
$$

COZ041-046-047-076>085-087-088-241100-
...PIKES PEAK/PALMER DIVIDE AND SOUTHERN FOOTHILLS...

CITY           SKY/WX    TMP DP  RH WIND       PRES   REMARKS
COLO. SPRINGS  FAIR      45  33  63 CALM      30.01F
A. F. ACADEMY  FAIR      32  29  90 N7        30.00F WCI  26
SCHRIEVER AFB  FAIR      38  33  80 SW6       30.00F
CHEYENNE MTN   FAIR      42  29  59 CALM      29.96F
ELLICOTT       FAIR     N/A N/A N/A NE5       29.98F
FALCON         FAIR      38  31  77 W6        30.02F
FORT CARSON    FAIR      38  32  78 NW7       29.98F
LIMON          FAIR      29  29 100 N5        29.96F WCI  24
MONUMENT HILL  FAIR      36  32  87 SW9       30.01F
CANON CITY     NOT AVBL
WALSENBURG     FAIR      45  34  65 SW16      29.99F
TRINIDAD       FAIR      42  33  70 SW14      30.00F
$$

COZ042>045-048>051-090-091-241100-
...NORTHEAST COLORADO...

CITY           SKY/WX    TMP DP  RH WIND       PRES   REMARKS
GREELEY ARPT   FAIR      39  37  92 CALM      29.93F
AKRON          FAIR      39  32  76 S7        29.93F
BURLINGTON     FAIR      35  33  92 W7        29.94F WCI  29
WRAY           FAIR      37  34  87 CALM      29.94F
YUMA           FAIR      32  32 100 CALM      29.93F
STERLING       FAIR      34  34 100 W3        29.91F
HOLYOKE        NOT AVBL
FORT MORGAN    FAIR      37  33  85 W5        29.93F
$$

COZ086-089-092>099-241100-
...SOUTHEAST COLORADO...

CITY           SKY/WX    TMP DP  RH WIND       PRES   REMARKS
PUEBLO         FAIR      43  37  79 CALM      29.96F
LA JUNTA       FAIR      43  38  82 W9        29.95F
LAMAR          FAIR      36  33  89 SW7       29.94F
SPRINGFIELD      N/A     38  35  89 W8        29.95F
$$




USA.gov is the U.S. government's official web portal to all federal, state and local government web resources and services.